Terug naar catalogus

NOAA 17 DEB

ActiefPO
NORAD 49478·DEBRIS·🇺🇸 United States

Gelanceerd Jun 24, 2002 vanaf Vandenberg Space Force Base

Loading…

Volgende Passages (komende 24 uur)

TLE

VersSource: Space-Track

Epoch: Sep 14, 2026, 02:03 UTC

1 49478U 02032DG  26257.08584817  .00008097  00000-0  13802-2 0  9992
2 49478  98.8489 298.8868 0004357 247.1030 112.9714 14.69292823277417

Volg NOAA 17 DEB in realtime met AllMySat

Download on the App Store